Location: Tauranga
(37.6860°S, 176.1670°E)
Time: 10:27:20
(UTC+12:00)

Cosmos 1606 - Pass Details

Date: 24 January 2019
Orbit: 503 x 530 km, 82.5° (Epoch: 19 April)

Event Time Altitude Azimuth Distance (km) Brightness Sun altitude
Exits shadow 23:26:25 47° 235° (SW) 726 3.7 -26.4°
Drops below altitude 10° 23:29:50 10° 184° (S) 1,810 6.2 -26.7°
Sets 23:32:03 0° 178° (S) 2,707 7.2 -27.0°
